Location: Glen Avon
(34.0117°N, 117.4848°W)
Time: 13:32:01
(UTC+00:00)

GPS 2-04 Rocket1 - Pass Details

Date: 01 August 2021
Orbit: 415 x 537 km, 35.6° (Epoch: 17 September)

Event Time Altitude Azimuth Distance (km) Brightness Sun altitude
Exits shadow 12:31:09 - 259° (W) 1,995 5.0 -6.6°
Reaches altitude 10° 12:31:41 10° 259° (W) 1,784 4.8 -6.5°
Maximum altitude 12:35:49 86° 349° (N) 534 2.8 -5.7°
Drops below altitude 10° 12:39:52 10° 78° (ENE) 1,750 7.0 -5.0°
Sets 12:42:05 0° 79° (ENE) 2,622 8.3 -4.6°
